User: anonymous   Login
Location: Vancouver
(49.2500°N, 123.1330°W)
Time: 09:46:50
(UTC-08:00)
Language:

Iridium 35 - Orbit

View from above orbital plane
View from above orbital plane
View from above satellite
View from above satellite

Ground track
Ground track

The orbit data is extracted from the following two-line orbital elements,

1 24966U 97056B   14324.49277434  .00000406  00000-0  13800-3 0   770
2 24966 086.3949 351.4945 0002148 107.9547 252.1883 14.34215016897849
Epoch (UTC): 20 November 2014 11:49:35
Eccentricity: 0.0002148
inclination: 86.3949°
perigee height: 776 km
apogee height: 779 km
right ascension of ascending node: 351.4945°
argument of perigee: 107.9547°
revolutions per day: 14.34215016
mean anomaly at epoch: 252.1883°
orbit number at epoch: 89784

The dashed part of the orbit path shows where the satellite is in the earth's shadow,  

DLR